This is the latest recevied weather packets stored in our database for station/object W9WRP. If no packets are shown the sender has not sent any weather packets the latest 10 day(s).
| Time | Temp. | Humidity | Pressure | Rain* | Wind** | Luminosity | Snow |
|---|---|---|---|---|---|---|---|
| 1787408179 | 32.78° C | 31% | 1017.6 hPa | 0 mm | - | 33 W/m² | - |
| 1787407875 | 32.22° C | 32% | 1017.5 hPa | 0 mm | - | 40 W/m² | - |
| 1787407570 | 31.67° C | 33% | 1017.6 hPa | 0 mm | - | 30 W/m² | - |
| 1787407265 | 31.11° C | 33% | 1017.5 hPa | 0 mm | - | 36 W/m² | - |
| 1787406961 | 31.11° C | 34% | 1017.5 hPa | 0 mm | - | 28 W/m² | - |
| 1787406656 | 30.56° C | 34% | 1017.4 hPa | 0 mm | - | 26 W/m² | - |
| 1787406352 | 30° C | 34% | 1017.2 hPa | 0 mm | - | 24 W/m² | - |
| 1787406048 | 30° C | 35% | 1017.2 hPa | 0 mm | - | 22 W/m² | - |
| 1787405744 | 30° C | 35% | 1017.2 hPa | 0 mm | - | 22 W/m² | - |
| 1787405440 | 30° C | 35% | 1017.1 hPa | 0 mm | - | 17 W/m² | - |
| 1787405135 | 29.44° C | 36% | 1016.9 hPa | 0 mm | - | 15 W/m² | - |
| 1787404831 | 29.44° C | 36% | 1016.9 hPa | 0 mm | - | 12 W/m² | - |
| 1787404526 | 30° C | 36% | 1016.8 hPa | 0 mm | - | 10 W/m² | - |
| 1787404226 | 30° C | 36% | 1016.8 hPa | 0 mm | - | 7 W/m² | - |
| 1787403921 | 29.44° C | 36% | 1016.7 hPa | 0 mm | - | 5 W/m² | - |
| 1787403616 | 29.44° C | 36% | 1016.6 hPa | 0 mm | - | 3 W/m² | - |
| 1787403310 | 30° C | 35% | 1016.3 hPa | 0 mm | - | 2 W/m² | - |
| 1787403007 | 30° C | 35% | 1016.2 hPa | 0 mm | - | 1 W/m² | - |
| 1787402702 | 30.56° C | 35% | 1016.2 hPa | 0 mm | - | 0 W/m² | - |
| 1787402396 | 30.56° C | 35% | 1016.1 hPa | 0 mm | - | 0 W/m² | - |
| 1787402091 | 30.56° C | 34% | 1016.3 hPa | 0 mm | - | 0 W/m² | - |
| 1787401786 | 30.56° C | 34% | 1016 hPa | 0 mm | - | 0 W/m² | - |
| 1787401483 | 30.56° C | 34% | 1016.2 hPa | 0 mm | - | 0 W/m² | - |
| 1787401177 | 31.11° C | 33% | 1016.3 hPa | 0 mm | - | 0 W/m² | - |
| 1787400874 | 31.11° C | 34% | 1016 hPa | 0 mm | - | 0 W/m² | - |
* Rain latest hour (hover to see other rain measurements)
** Current wind speed in m/s (hover to see current wind gust speed)